contact:dominique.lefevre@mio.osupytheas.fr, maurice.libes@osupytheas.fr, didier.mallarino@osupytheas.fr
Project:EMSO http://www.emso-fr.org/EMSO-France
Depth: 2436.0 m
Title:EMSO Ligure Ouest : Data MII capteur AQUADOPP
Date,Latitude,Longitude,X_East,Y_North,Z_Up,Amplitude_X,Amplitude_Y,Amplitude_Z,Batterie,SoundSpeed,Heading,Pitch,Roll,Pressure,TIS,Speed,Direction
, degrees North, degrees East, m.s-1, m.s-1,m.s-1, 1, 1, 1, Volt, m.s-1, degree, degree, degree, dbar, degree_C, m.s-1, degree
2021-06-24T00:04:03,42.805,6.029,-0.053,-0.019,-0.026,103.0,104.0,103.0,13.4,1505.1,327.8,-0.8,1.8,2470.954,13.27,0.056,250.3
2021-06-24T00:07:03,42.805,6.029,-0.054,-0.017,-0.021,105.0,103.0,102.0,13.4,1505.1,329.3,-0.8,1.8,2470.841,13.27,0.056,252.5
2021-06-24T00:10:03,42.805,6.029,-0.052,-0.005,-0.003,105.0,104.0,102.0,13.4,1505.2,326.4,-0.8,1.8,2470.798,13.28,0.052,264.5
2021-06-24T00:13:03,42.805,6.029,-0.02,-0.033,-0.043,104.0,103.0,103.0,13.3,1505.2,326.3,-0.8,1.8,2470.789,13.28,0.038,211.2
2021-06-24T00:16:03,42.805,6.029,-0.042,-0.013,-0.006,103.0,105.0,102.0,13.4,1505.2,329.3,-0.7,1.8,2470.753,13.28,0.043,252.8
2021-06-24T00:19:03,42.805,6.029,-0.041,-0.033,-0.017,104.0,105.0,103.0,13.4,1505.2,328.8,-0.8,1.8,2470.705,13.28,0.052,231.2
2021-06-24T00:22:03,42.805,6.029,-0.039,-0.027,-0.024,103.0,104.0,102.0,13.4,1505.2,327.1,-0.8,1.8,2470.651,13.28,0.047,235.3
2021-06-24T00:25:03,42.805,6.029,-0.034,-0.003,-0.003,105.0,103.0,103.0,13.4,1505.2,326.4,-0.7,1.8,2470.678,13.28,0.034,265.0
2021-06-24T00:28:03,42.805,6.029,-0.032,-0.025,0.013,104.0,103.0,102.0,13.4,1505.2,328.1,-0.7,1.8,2470.667,13.28,0.04,232.0
2021-06-24T00:31:03,42.805,6.029,-0.036,0.001,-0.018,104.0,103.0,101.0,13.4,1505.2,326.9,-0.7,1.8,2470.626,13.28,0.036,271.6
2021-06-24T00:34:03,42.805,6.029,-0.031,-0.011,-0.024,103.0,104.0,102.0,13.4,1505.2,325.0,-0.7,1.8,2470.6,13.28,0.032,250.5
2021-06-24T00:37:03,42.805,6.029,-0.063,0.001,-0.009,103.0,103.0,102.0,13.4,1505.2,328.3,-0.8,1.8,2470.563,13.28,0.063,270.9
2021-06-24T00:40:03,42.805,6.029,-0.04,-0.016,-0.011,105.0,103.0,101.0,13.4,1505.2,325.2,-0.8,1.8,2470.54,13.28,0.043,248.2
2021-06-24T00:43:03,42.805,6.029,-0.054,-0.007,-0.015,105.0,102.0,103.0,13.4,1505.2,327.2,-0.8,1.8,2470.522,13.28,0.054,262.6
2021-06-24T00:46:03,42.805,6.029,-0.033,-0.013,-0.021,104.0,103.0,101.0,13.4,1505.2,328.8,-0.8,1.8,2470.532,13.28,0.035,248.5
2021-06-24T00:49:03,42.805,6.029,-0.017,-0.026,-0.014,104.0,104.0,102.0,13.4,1505.2,324.3,-0.7,1.8,2470.495,13.28,0.031,213.2
2021-06-24T00:52:03,42.805,6.029,-0.049,-0.003,-0.022,103.0,102.0,103.0,13.4,1505.2,327.9,-0.8,1.8,2470.505,13.28,0.049,266.5
2021-06-24T00:55:03,42.805,6.029,-0.045,-0.004,-0.018,104.0,100.0,102.0,13.3,1505.2,326.5,-0.7,1.9,2470.498,13.28,0.045,264.9
2021-06-24T00:58:03,42.805,6.029,-0.008,-0.019,-0.012,104.0,104.0,101.0,13.3,1505.2,327.6,-0.8,1.8,2470.51,13.28,0.02,202.8
2021-06-24T01:04:03,42.805,6.029,-0.051,-0.004,0.002,104.0,104.0,101.0,13.4,1505.2,326.6,-0.7,1.8,2470.552,13.28,0.051,265.5
2021-06-24T01:07:03,42.805,6.029,-0.04,-0.01,0.0,103.0,104.0,100.0,13.3,1505.2,328.1,-0.8,1.8,2470.543,13.28,0.041,256.0
2021-06-24T01:10:03,42.805,6.029,-0.048,-0.002,-0.031,104.0,103.0,101.0,13.4,1505.2,328.6,-0.7,1.9,2470.499,13.28,0.048,267.6
2021-06-24T01:13:03,42.805,6.029,-0.041,-0.002,-0.02,103.0,103.0,102.0,13.4,1505.2,327.1,-0.7,1.8,2470.52,13.28,0.041,267.2
2021-06-24T01:16:03,42.805,6.029,-0.011,-0.021,-0.021,103.0,102.0,107.0,13.3,1505.2,327.8,-0.8,1.8,2470.516,13.28,0.023,207.6
2021-06-24T01:19:03,42.805,6.029,-0.037,-0.014,0.012,103.0,102.0,102.0,13.4,1505.2,326.1,-0.8,1.9,2470.471,13.28,0.039,249.3
2021-06-24T01:22:03,42.805,6.029,-0.031,-0.006,-0.013,104.0,102.0,101.0,13.4,1505.2,326.5,-0.7,1.8,2470.479,13.28,0.031,259.0
2021-06-24T01:25:03,42.805,6.029,-0.035,-0.02,-0.003,103.0,102.0,102.0,13.4,1505.2,325.2,-0.7,1.8,2470.498,13.28,0.04,240.3
2021-06-24T01:28:03,42.805,6.029,-0.048,-0.001,-0.005,104.0,102.0,101.0,13.3,1505.2,325.4,-0.7,1.8,2470.47,13.28,0.048,268.8
2021-06-24T01:31:03,42.805,6.029,-0.047,-0.023,-0.027,103.0,102.0,100.0,13.3,1505.2,328.3,-0.8,1.8,2470.503,13.28,0.052,243.9
2021-06-24T01:34:03,42.805,6.029,-0.049,-0.031,0.006,102.0,102.0,101.0,13.3,1505.2,329.9,-0.7,1.8,2470.483,13.28,0.057,237.7
2021-06-24T01:37:03,42.805,6.029,-0.052,-0.002,0.0,102.0,103.0,102.0,13.4,1505.2,327.7,-0.8,1.8,2470.471,13.28,0.052,267.8
2021-06-24T01:40:03,42.805,6.029,-0.052,-0.027,-0.037,102.0,104.0,101.0,13.3,1505.2,327.4,-0.8,1.8,2470.484,13.28,0.058,242.6
2021-06-24T01:43:03,42.805,6.029,-0.034,-0.014,-0.02,102.0,102.0,102.0,13.3,1505.2,326.1,-0.8,1.8,2470.476,13.28,0.036,247.6
2021-06-24T01:46:03,42.805,6.029,-0.024,-0.008,-0.006,103.0,102.0,101.0,13.4,1505.2,328.3,-0.8,1.8,2470.479,13.28,0.025,251.6
2021-06-24T01:49:03,42.805,6.029,-0.046,-0.011,-0.022,104.0,103.0,101.0,13.4,1505.2,325.6,-0.7,1.9,2470.47,13.28,0.047,256.6
2021-06-24T01:52:03,42.805,6.029,-0.029,-0.016,-0.018,103.0,101.0,101.0,13.3,1505.2,326.5,-0.8,1.8,2470.45,13.28,0.033,241.1
2021-06-24T01:55:03,42.805,6.029,-0.069,-0.032,-0.014,103.0,101.0,102.0,13.3,1505.2,328.4,-0.8,1.8,2470.417,13.28,0.076,245.1
2021-06-24T01:58:03,42.805,6.029,-0.046,-0.014,0.012,102.0,104.0,102.0,13.4,1505.2,328.1,-0.7,1.9,2470.51,13.28,0.048,253.1
2021-06-24T02:04:03,42.805,6.029,-0.045,0.0,-0.007,104.0,103.0,101.0,13.4,1505.2,326.5,-0.8,1.8,2470.481,13.28,0.045,270.0
2021-06-24T02:07:03,42.805,6.029,-0.04,-0.005,-0.027,102.0,103.0,101.0,13.4,1505.2,328.6,-0.7,1.8,2470.516,13.28,0.04,262.9
2021-06-24T02:10:03,42.805,6.029,-0.023,-0.003,-0.002,104.0,102.0,102.0,13.4,1505.2,328.1,-0.8,1.8,2470.497,13.28,0.023,262.6
2021-06-24T02:13:03,42.805,6.029,-0.033,0.0,0.013,104.0,104.0,100.0,13.4,1505.2,329.1,-0.8,1.8,2470.524,13.28,0.033,270.0
2021-06-24T02:16:03,42.805,6.029,-0.024,-0.016,-0.005,103.0,103.0,102.0,13.4,1505.2,327.2,-0.8,1.8,2470.511,13.28,0.028,236.3
2021-06-24T02:19:03,42.805,6.029,-0.028,0.001,0.005,102.0,103.0,101.0,13.3,1505.2,329.2,-0.8,1.8,2470.458,13.28,0.028,272.0
2021-06-24T02:22:03,42.805,6.029,-0.026,-0.022,-0.022,102.0,102.0,102.0,13.4,1505.2,328.1,-0.7,1.8,2470.497,13.28,0.034,229.8
2021-06-24T02:25:03,42.805,6.029,-0.039,-0.024,-0.012,103.0,102.0,101.0,13.4,1505.2,328.6,-0.8,1.8,2470.467,13.28,0.045,238.4
2021-06-24T02:28:03,42.805,6.029,-0.033,0.0,-0.044,102.0,103.0,101.0,13.4,1505.2,329.1,-0.7,1.9,2470.49,13.28,0.033,270.0
2021-06-24T02:31:03,42.805,6.029,-0.031,-0.008,0.002,101.0,102.0,101.0,13.3,1505.2,329.9,-0.7,1.8,2470.486,13.28,0.032,255.5
2021-06-24T02:34:03,42.805,6.029,-0.023,-0.015,-0.006,103.0,101.0,101.0,13.4,1505.2,328.4,-0.7,1.8,2470.52,13.28,0.027,236.9
2021-06-24T02:37:03,42.805,6.029,-0.064,-0.002,-0.003,102.0,103.0,101.0,13.3,1505.2,324.6,-0.8,1.8,2470.506,13.28,0.064,268.2
2021-06-24T02:40:03,42.805,6.029,-0.038,-0.01,-0.041,100.0,102.0,102.0,13.4,1505.2,327.3,-0.8,1.8,2470.471,13.28,0.039,255.3
2021-06-24T02:43:03,42.805,6.029,-0.029,-0.005,-0.019,104.0,103.0,101.0,13.4,1505.2,329.9,-0.7,1.8,2470.533,13.28,0.029,260.2
2021-06-24T02:46:03,42.805,6.029,-0.027,-0.036,-0.046,102.0,102.0,102.0,13.3,1505.2,329.7,-0.7,1.8,2470.508,13.28,0.045,216.9
2021-06-24T02:49:03,42.805,6.029,-0.047,-0.009,-0.001,102.0,102.0,101.0,13.4,1505.2,329.2,-0.7,1.8,2470.486,13.28,0.047,259.2
2021-06-24T02:52:03,42.805,6.029,-0.033,-0.017,-0.011,102.0,102.0,101.0,13.4,1505.2,327.0,-0.8,1.8,2470.491,13.28,0.037,242.7
2021-06-24T02:55:03,42.805,6.029,-0.031,-0.007,0.013,102.0,102.0,101.0,13.4,1505.2,326.6,-0.7,1.8,2470.512,13.28,0.031,257.3
2021-06-24T02:58:03,42.805,6.029,-0.031,-0.003,-0.005,102.0,102.0,100.0,13.4,1505.2,325.7,-0.7,1.8,2470.492,13.28,0.031,264.5
2021-06-24T03:04:03,42.805,6.029,-0.028,-0.008,0.004,102.0,101.0,101.0,13.4,1505.2,330.5,-0.8,1.8,2470.534,13.28,0.029,254.1
2021-06-24T03:07:03,42.805,6.029,-0.014,-0.014,-0.012,102.0,101.0,101.0,13.3,1505.2,328.0,-0.8,1.8,2470.549,13.28,0.019,225.0
2021-06-24T03:10:03,42.805,6.029,-0.013,-0.001,-0.025,101.0,102.0,101.0,13.3,1505.2,325.5,-0.8,1.8,2470.524,13.28,0.013,265.6
2021-06-24T03:13:03,42.805,6.029,-0.038,-0.011,0.012,102.0,102.0,101.0,13.3,1505.2,326.5,-0.8,1.8,2470.517,13.28,0.039,253.9
2021-06-24T03:16:03,42.805,6.029,-0.043,-0.005,-0.018,101.0,103.0,101.0,13.4,1505.2,327.8,-0.7,1.8,2470.53,13.28,0.043,263.4
2021-06-24T03:19:03,42.805,6.029,-0.013,0.008,-0.001,100.0,103.0,102.0,13.3,1505.2,328.1,-0.8,1.9,2470.556,13.28,0.015,301.6
2021-06-24T03:22:03,42.805,6.029,-0.047,-0.008,-0.006,102.0,101.0,101.0,13.4,1505.2,327.1,-0.8,1.8,2470.536,13.28,0.047,260.3
2021-06-24T03:25:03,42.805,6.029,-0.034,-0.02,-0.02,103.0,103.0,100.0,13.4,1505.2,327.8,-0.7,1.8,2470.567,13.28,0.039,239.5
2021-06-24T03:28:03,42.805,6.029,-0.026,-0.016,-0.007,104.0,100.0,101.0,13.4,1505.2,328.4,-0.7,1.8,2470.523,13.28,0.03,238.4
2021-06-24T03:31:03,42.805,6.029,-0.042,-0.022,-0.045,103.0,102.0,101.0,13.3,1505.2,329.4,-0.7,1.8,2470.552,13.28,0.047,242.4
2021-06-24T03:34:03,42.805,6.029,-0.034,-0.028,-0.031,103.0,102.0,102.0,13.4,1505.2,325.2,-0.7,1.8,2470.518,13.28,0.044,230.5
2021-06-24T03:37:03,42.805,6.029,-0.033,-0.033,-0.016,102.0,102.0,101.0,13.4,1505.2,324.8,-0.8,1.8,2470.53,13.28,0.046,225.0
2021-06-24T03:40:03,42.805,6.029,-0.022,-0.006,-0.008,102.0,102.0,101.0,13.3,1505.2,328.6,-0.7,1.8,2470.549,13.28,0.022,254.7
2021-06-24T03:43:03,42.805,6.029,-0.024,-0.001,-0.029,101.0,102.0,101.0,13.4,1505.2,328.0,-0.8,1.8,2470.559,13.28,0.024,267.6
2021-06-24T03:46:03,42.805,6.029,-0.042,-0.021,-0.006,102.0,102.0,101.0,13.4,1505.2,324.7,-0.8,1.8,2470.562,13.28,0.046,243.4
2021-06-24T03:49:03,42.805,6.029,-0.029,-0.028,-0.036,102.0,102.0,101.0,13.3,1505.2,327.2,-0.7,1.8,2470.536,13.28,0.04,226.0
2021-06-24T03:52:03,42.805,6.029,-0.04,-0.008,-0.013,102.0,102.0,101.0,13.4,1505.2,325.9,-0.8,1.8,2470.557,13.28,0.04,258.7
2021-06-24T03:55:03,42.805,6.029,-0.039,-0.016,-0.006,100.0,102.0,101.0,13.3,1505.2,326.0,-0.7,1.8,2470.561,13.28,0.042,247.7
2021-06-24T03:58:03,42.805,6.029,-0.034,-0.034,-0.023,102.0,103.0,101.0,13.4,1505.2,326.8,-0.7,1.8,2470.565,13.28,0.048,225.0
2021-06-24T04:04:03,42.805,6.029,-0.022,0.0,-0.036,103.0,103.0,101.0,13.4,1505.2,330.1,-0.7,1.8,2470.625,13.28,0.022,270.0
2021-06-24T04:07:03,42.805,6.029,-0.031,-0.007,-0.013,102.0,102.0,101.0,13.4,1505.2,324.4,-0.8,1.8,2470.551,13.28,0.031,257.3
2021-06-24T04:10:03,42.805,6.029,-0.01,-0.023,0.01,101.0,102.0,101.0,13.4,1505.2,325.4,-0.8,1.8,2470.623,13.28,0.025,203.5
2021-06-24T04:13:03,42.805,6.029,-0.036,-0.034,-0.011,103.0,102.0,101.0,13.4,1505.2,326.8,-0.7,1.8,2470.584,13.28,0.049,226.6
2021-06-24T04:16:03,42.805,6.029,-0.032,-0.004,-0.001,101.0,102.0,101.0,13.4,1505.2,328.8,-0.7,1.9,2470.574,13.28,0.032,262.9
2021-06-24T04:19:03,42.805,6.029,-0.009,-0.005,0.043,104.0,103.0,100.0,13.4,1505.2,327.8,-0.7,1.8,2470.59,13.28,0.01,240.9
2021-06-24T04:22:03,42.805,6.029,-0.055,-0.005,-0.029,101.0,104.0,101.0,13.4,1505.2,326.2,-0.7,1.9,2470.576,13.28,0.055,264.8
2021-06-24T04:25:03,42.805,6.029,-0.025,-0.035,0.013,102.0,102.0,102.0,13.4,1505.2,325.2,-0.8,1.8,2470.586,13.28,0.043,215.5
2021-06-24T04:28:03,42.805,6.029,-0.012,-0.015,-0.027,100.0,103.0,101.0,13.4,1505.2,325.9,-0.7,1.8,2470.565,13.28,0.019,218.7
2021-06-24T04:31:03,42.805,6.029,-0.041,-0.018,-0.031,102.0,100.0,102.0,13.3,1505.2,325.0,-0.7,1.8,2470.569,13.28,0.044,246.3
2021-06-24T04:34:03,42.805,6.029,-0.038,-0.018,-0.018,102.0,100.0,102.0,13.4,1505.2,324.9,-0.8,1.8,2470.548,13.28,0.042,244.7
2021-06-24T04:37:03,42.805,6.029,-0.028,-0.031,-0.023,101.0,101.0,101.0,13.4,1505.2,325.5,-0.7,1.8,2470.595,13.28,0.041,222.1
2021-06-24T04:40:03,42.805,6.029,-0.023,-0.018,-0.038,102.0,103.0,102.0,13.3,1505.2,325.2,-0.8,1.9,2470.605,13.28,0.029,232.0
2021-06-24T04:49:03,42.805,6.029,-0.029,-0.026,-0.021,102.0,102.0,101.0,13.4,1505.2,327.4,-0.7,1.8,2470.644,13.28,0.038,228.1
2021-06-24T04:52:03,42.805,6.029,-0.024,-0.017,-0.036,102.0,102.0,100.0,13.4,1505.2,328.9,-0.7,1.8,2470.646,13.28,0.029,234.7
2021-06-24T04:55:03,42.805,6.029,-0.042,-0.002,-0.005,101.0,102.0,102.0,13.4,1505.2,327.1,-0.7,1.9,2470.618,13.28,0.042,267.3
2021-06-24T04:58:03,42.805,6.029,-0.027,-0.035,-0.011,104.0,102.0,100.0,13.4,1505.2,326.2,-0.7,1.9,2470.61,13.28,0.044,217.7
2021-06-24T05:04:03,42.805,6.029,-0.017,-0.019,0.008,102.0,101.0,101.0,13.4,1505.2,327.4,-0.8,1.8,2470.667,13.28,0.025,221.8
2021-06-24T05:07:03,42.805,6.029,-0.044,-0.007,0.006,101.0,103.0,102.0,13.4,1505.2,329.9,-0.8,1.8,2470.634,13.28,0.044,261.0
2021-06-24T05:10:03,42.805,6.029,-0.033,0.0,-0.01,102.0,103.0,101.0,13.4,1505.2,325.9,-0.7,1.8,2470.675,13.28,0.033,270.0
2021-06-24T05:13:03,42.805,6.029,-0.015,-0.031,-0.013,102.0,102.0,101.0,13.4,1505.2,328.8,-0.8,1.8,2470.621,13.28,0.034,205.8
2021-06-24T05:16:03,42.805,6.029,-0.019,0.003,-0.025,101.0,104.0,100.0,13.4,1505.2,325.3,-0.7,1.8,2470.658,13.28,0.019,279.0
2021-06-24T05:19:03,42.805,6.029,-0.049,-0.024,0.038,101.0,102.0,101.0,13.4,1505.2,326.3,-0.7,1.8,2470.664,13.28,0.054,243.9
2021-06-24T05:22:03,42.805,6.029,-0.001,-0.023,0.01,102.0,102.0,101.0,13.4,1505.2,326.5,-0.8,1.8,2470.639,13.28,0.023,182.5
2021-06-24T05:25:03,42.805,6.029,-0.036,-0.02,-0.01,102.0,103.0,101.0,13.3,1505.2,328.3,-0.7,1.8,2470.608,13.28,0.041,240.9
2021-06-24T05:28:03,42.805,6.029,-0.048,-0.027,-0.011,102.0,102.0,100.0,13.4,1505.2,327.2,-0.7,1.8,2470.599,13.28,0.055,240.6
2021-06-24T05:31:03,42.805,6.029,-0.02,-0.023,0.007,102.0,102.0,101.0,13.4,1505.2,325.5,-0.8,1.8,2470.6,13.28,0.03,221.0
2021-06-24T05:34:03,42.805,6.029,-0.031,-0.017,-0.021,102.0,102.0,101.0,13.3,1505.2,328.2,-0.8,1.8,2470.613,13.28,0.035,241.3
2021-06-24T05:37:03,42.805,6.029,-0.015,-0.015,-0.023,102.0,101.0,101.0,13.4,1505.2,328.6,-0.8,1.9,2470.623,13.28,0.021,225.0
2021-06-24T05:40:03,42.805,6.029,-0.02,-0.009,0.002,102.0,102.0,101.0,13.4,1505.2,326.4,-0.7,1.8,2470.622,13.28,0.021,245.8
2021-06-24T05:43:03,42.805,6.029,-0.006,-0.034,-0.016,102.0,102.0,102.0,13.4,1505.2,329.4,-0.7,1.8,2470.61,13.28,0.034,190.0
2021-06-24T05:46:03,42.805,6.029,-0.029,-0.027,0.0,102.0,102.0,101.0,13.3,1505.2,330.3,-0.7,1.8,2470.619,13.28,0.039,227.0
2021-06-24T05:49:03,42.805,6.029,-0.027,-0.02,-0.002,102.0,101.0,100.0,13.3,1505.2,326.9,-0.8,1.8,2470.643,13.28,0.033,233.5
2021-06-24T05:52:03,42.805,6.029,-0.029,-0.02,-0.029,103.0,103.0,100.0,13.4,1505.2,327.0,-0.8,1.8,2470.614,13.28,0.035,235.4
2021-06-24T05:55:03,42.805,6.029,-0.012,-0.027,-0.002,102.0,101.0,101.0,13.4,1505.2,325.2,-0.8,1.8,2470.612,13.28,0.029,204.0
2021-06-24T05:58:03,42.805,6.029,-0.038,-0.019,-0.035,103.0,101.0,102.0,13.3,1505.2,327.9,-0.8,1.8,2470.621,13.28,0.042,243.4
2021-06-24T06:04:03,42.805,6.029,-0.035,-0.033,0.003,102.0,103.0,100.0,13.4,1505.2,326.0,-0.8,1.8,2470.648,13.28,0.048,226.7
2021-06-24T06:07:03,42.805,6.029,-0.005,-0.031,-0.014,101.0,102.0,101.0,13.3,1505.2,329.1,-0.8,1.8,2470.663,13.28,0.031,189.2
2021-06-24T06:10:03,42.805,6.029,-0.03,-0.02,-0.028,103.0,101.0,101.0,13.4,1505.2,325.2,-0.8,1.8,2470.642,13.28,0.036,236.3
2021-06-24T06:13:03,42.805,6.029,-0.021,-0.033,-0.034,102.0,101.0,100.0,13.4,1505.2,326.5,-0.7,1.8,2470.639,13.28,0.039,212.5
2021-06-24T06:16:03,42.805,6.029,-0.032,-0.021,0.004,102.0,102.0,101.0,13.4,1505.2,326.7,-0.7,1.8,2470.648,13.28,0.038,236.7
2021-06-24T06:19:03,42.805,6.029,-0.033,-0.034,-0.019,103.0,101.0,100.0,13.4,1505.2,329.3,-0.8,1.8,2470.593,13.28,0.047,224.1
2021-06-24T06:22:03,42.805,6.029,-0.031,-0.005,-0.012,102.0,102.0,100.0,13.4,1505.2,327.4,-0.7,1.8,2470.629,13.28,0.031,260.8
2021-06-24T06:25:03,42.805,6.029,-0.018,-0.022,-0.015,103.0,103.0,100.0,13.4,1505.2,325.9,-0.7,1.8,2470.673,13.28,0.028,219.3
2021-06-24T06:28:03,42.805,6.029,-0.006,-0.03,0.002,102.0,103.0,101.0,13.4,1505.2,326.3,-0.7,1.8,2470.624,13.28,0.03,191.3
2021-06-24T06:31:03,42.805,6.029,-0.05,-0.007,-0.041,103.0,101.0,101.0,13.4,1505.2,329.5,-0.8,1.8,2470.612,13.28,0.05,262.0
2021-06-24T06:34:03,42.805,6.029,-0.035,-0.03,0.007,103.0,102.0,101.0,13.3,1505.2,326.0,-0.7,1.8,2470.61,13.28,0.046,229.4
2021-06-24T06:37:03,42.805,6.029,-0.037,-0.017,-0.028,102.0,101.0,101.0,13.3,1505.2,324.6,-0.8,1.8,2470.598,13.28,0.04,245.3
2021-06-24T06:40:03,42.805,6.029,-0.027,-0.024,-0.004,103.0,101.0,101.0,13.4,1505.2,327.6,-0.8,1.8,2470.626,13.28,0.036,228.4
2021-06-24T06:43:03,42.805,6.029,-0.025,-0.029,0.014,102.0,102.0,100.0,13.4,1505.2,326.6,-0.7,1.8,2470.615,13.28,0.038,220.8
2021-06-24T06:46:03,42.805,6.029,-0.037,-0.009,0.003,102.0,102.0,100.0,13.3,1505.2,330.2,-0.7,1.8,2470.613,13.28,0.038,256.3
2021-06-24T06:49:03,42.805,6.029,-0.027,-0.004,0.017,100.0,103.0,100.0,13.3,1505.2,327.1,-0.7,1.9,2470.64,13.28,0.027,261.6
2021-06-24T06:52:03,42.805,6.029,-0.031,-0.005,-0.023,102.0,102.0,101.0,13.3,1505.2,328.5,-0.8,1.8,2470.603,13.28,0.031,260.8
2021-06-24T06:55:03,42.805,6.029,-0.035,-0.02,0.01,102.0,102.0,101.0,13.4,1505.2,325.2,-0.7,1.8,2470.589,13.28,0.04,240.3
2021-06-24T06:58:03,42.805,6.029,-0.013,-0.038,-0.034,102.0,103.0,100.0,13.4,1505.2,329.8,-0.8,1.8,2470.562,13.28,0.04,198.9
2021-06-24T07:04:03,42.805,6.029,-0.012,-0.008,0.001,102.0,102.0,100.0,13.3,1505.2,327.4,-0.8,1.8,2470.643,13.28,0.014,236.3
2021-06-24T07:07:03,42.805,6.029,-0.034,-0.021,-0.029,101.0,102.0,100.0,13.4,1505.2,326.5,-0.7,1.8,2470.615,13.28,0.039,238.3
2021-06-24T07:10:03,42.805,6.029,-0.027,-0.005,-0.03,103.0,102.0,101.0,13.3,1505.2,328.4,-0.8,1.8,2470.597,13.28,0.027,259.5
2021-06-24T07:13:03,42.805,6.029,-0.019,-0.02,-0.034,104.0,103.0,100.0,13.4,1505.2,328.0,-0.7,1.8,2470.599,13.28,0.027,223.5
2021-06-24T07:16:03,42.805,6.029,-0.019,-0.008,-0.034,102.0,102.0,101.0,13.4,1505.2,327.8,-0.7,1.9,2470.636,13.28,0.02,247.2
2021-06-24T07:19:03,42.805,6.029,-0.011,-0.05,-0.016,103.0,101.0,102.0,13.4,1505.2,326.9,-0.7,1.8,2470.62,13.28,0.051,192.4
2021-06-24T07:22:03,42.805,6.029,-0.037,0.0,-0.011,102.0,103.0,101.0,13.3,1505.2,326.3,-0.8,1.8,2470.616,13.28,0.037,270.0
2021-06-24T07:25:03,42.805,6.029,-0.025,-0.018,0.004,102.0,103.0,102.0,13.4,1505.2,325.1,-0.7,1.8,2470.608,13.28,0.03,234.2
2021-06-24T07:28:03,42.805,6.029,-0.049,-0.001,-0.02,103.0,102.0,101.0,13.4,1505.2,330.1,-0.7,1.8,2470.58,13.28,0.049,268.8
2021-06-24T07:31:03,42.805,6.029,-0.047,-0.014,-0.031,102.0,102.0,101.0,13.4,1505.2,328.0,-0.7,1.8,2470.575,13.28,0.049,253.4
2021-06-24T07:34:03,42.805,6.029,-0.021,-0.013,-0.025,103.0,100.0,101.0,13.3,1505.2,327.9,-0.7,1.8,2470.6,13.28,0.024,238.2
2021-06-24T07:37:03,42.805,6.029,-0.037,-0.026,-0.026,103.0,102.0,102.0,13.4,1505.2,327.5,-0.7,1.8,2470.557,13.28,0.045,234.9
2021-06-24T07:40:03,42.805,6.029,-0.023,-0.02,-0.022,102.0,102.0,102.0,13.3,1505.2,326.9,-0.7,1.8,2470.57,13.28,0.03,229.0
2021-06-24T07:43:03,42.805,6.029,-0.027,-0.032,-0.05,103.0,103.0,102.0,13.3,1505.2,327.2,-0.7,1.8,2470.549,13.28,0.041,220.2
2021-06-24T07:46:03,42.805,6.029,-0.03,-0.02,-0.003,103.0,101.0,102.0,13.3,1505.2,328.9,-0.8,1.8,2470.603,13.28,0.036,236.3
2021-06-24T07:49:03,42.805,6.029,-0.018,-0.009,-0.003,103.0,102.0,102.0,13.4,1505.2,327.8,-0.7,1.8,2470.586,13.28,0.02,243.4
2021-06-24T07:52:03,42.805,6.029,-0.023,-0.019,-0.026,102.0,103.0,102.0,13.3,1505.2,329.2,-0.7,1.8,2470.548,13.28,0.029,230.4
2021-06-24T07:55:03,42.805,6.029,-0.016,-0.023,-0.042,103.0,102.0,101.0,13.4,1505.2,329.9,-0.8,1.9,2470.58,13.28,0.028,214.8
2021-06-24T07:58:03,42.805,6.029,-0.034,-0.003,0.01,103.0,102.0,101.0,13.3,1505.2,326.3,-0.7,1.9,2470.562,13.28,0.034,265.0
2021-06-24T08:04:03,42.805,6.029,-0.044,-0.015,-0.006,103.0,102.0,100.0,13.4,1505.2,327.7,-0.8,1.8,2470.581,13.28,0.046,251.2
2021-06-24T08:07:03,42.805,6.029,-0.011,-0.015,-0.012,101.0,104.0,101.0,13.3,1505.2,329.2,-0.8,1.8,2470.62,13.28,0.018,216.3
2021-06-24T08:10:03,42.805,6.029,-0.025,-0.007,0.011,103.0,101.0,101.0,13.4,1505.2,325.9,-0.7,1.8,2470.598,13.28,0.025,254.4
2021-06-24T08:13:03,42.805,6.029,-0.023,-0.007,-0.008,103.0,104.0,101.0,13.3,1505.2,327.2,-0.8,1.8,2470.602,13.28,0.024,253.1
2021-06-24T08:16:03,42.805,6.029,-0.01,-0.011,-0.015,103.0,102.0,101.0,13.4,1505.2,328.0,-0.7,1.8,2470.563,13.28,0.014,222.3
2021-06-24T08:19:03,42.805,6.029,-0.024,-0.021,-0.012,103.0,103.0,101.0,13.4,1505.2,324.5,-0.8,1.8,2470.555,13.28,0.031,228.8
2021-06-24T08:22:03,42.805,6.029,-0.03,-0.022,-0.019,106.0,103.0,102.0,13.4,1505.2,329.3,-0.7,1.8,2470.551,13.28,0.037,233.7
2021-06-24T08:25:03,42.805,6.029,0.001,-0.018,0.014,103.0,104.0,100.0,13.4,1505.2,325.0,-0.7,1.8,2470.596,13.28,0.018,176.8
2021-06-24T08:28:03,42.805,6.029,-0.023,-0.022,-0.031,103.0,103.0,101.0,13.4,1505.2,328.5,-0.8,1.8,2470.53,13.28,0.031,226.3
2021-06-24T08:31:03,42.805,6.029,-0.015,-0.012,-0.006,103.0,102.0,101.0,13.4,1505.2,328.8,-0.8,1.8,2470.546,13.28,0.019,231.3
2021-06-24T08:34:03,42.805,6.029,-0.018,-0.013,-0.009,103.0,103.0,102.0,13.4,1505.2,326.0,-0.8,1.8,2470.596,13.28,0.022,234.2
2021-06-24T08:37:03,42.805,6.029,-0.022,-0.024,-0.031,102.0,103.0,101.0,13.3,1505.2,325.1,-0.8,1.8,2470.581,13.28,0.032,222.5
2021-06-24T08:40:03,42.805,6.029,-0.008,-0.019,-0.004,102.0,102.0,101.0,13.3,1505.2,327.0,-0.7,1.8,2470.564,13.28,0.02,202.8
2021-06-24T08:43:03,42.805,6.029,-0.013,-0.019,-0.03,102.0,103.0,101.0,13.3,1505.2,325.8,-0.7,1.8,2470.589,13.28,0.023,214.4
2021-06-24T08:46:03,42.805,6.029,-0.017,-0.014,-0.017,104.0,101.0,102.0,13.3,1505.2,326.5,-0.8,1.8,2470.584,13.28,0.022,230.5
2021-06-24T08:49:03,42.805,6.029,-0.017,-0.011,-0.059,103.0,104.0,102.0,13.4,1505.2,330.0,-0.7,1.8,2470.602,13.28,0.02,237.1
2021-06-24T08:52:03,42.805,6.029,-0.018,-0.012,0.004,104.0,103.0,101.0,13.4,1505.2,326.3,-0.8,1.8,2470.547,13.28,0.021,236.3
2021-06-24T08:55:03,42.805,6.029,-0.019,-0.028,-0.053,103.0,103.0,101.0,13.4,1505.2,328.6,-0.8,1.8,2470.542,13.28,0.033,214.2
2021-06-24T08:58:03,42.805,6.029,-0.011,-0.006,-0.017,104.0,103.0,102.0,13.4,1505.2,328.7,-0.8,1.8,2470.562,13.28,0.012,241.4
2021-06-24T09:04:03,42.805,6.029,-0.011,-0.034,-0.007,103.0,104.0,101.0,13.4,1505.2,328.9,-0.7,1.8,2470.593,13.28,0.035,197.9
2021-06-24T09:07:03,42.805,6.029,-0.03,-0.01,-0.028,104.0,103.0,103.0,13.4,1505.2,328.4,-0.8,1.9,2470.568,13.28,0.031,251.6
2021-06-24T09:10:03,42.805,6.029,-0.011,-0.025,-0.018,104.0,104.0,102.0,13.4,1505.2,327.9,-0.8,1.8,2470.58,13.28,0.027,203.7
2021-06-24T09:13:03,42.805,6.029,-0.005,-0.025,-0.048,104.0,102.0,103.0,13.4,1505.2,326.6,-0.7,1.8,2470.55,13.28,0.025,191.3
2021-06-24T09:16:03,42.805,6.029,-0.026,-0.024,-0.008,104.0,104.0,101.0,13.4,1505.2,328.9,-0.8,1.8,2470.562,13.28,0.035,227.3
2021-06-24T09:19:03,42.805,6.029,-0.013,-0.011,-0.013,103.0,103.0,104.0,13.3,1505.2,330.3,-0.8,1.8,2470.539,13.28,0.017,229.8
2021-06-24T09:22:03,42.805,6.029,-0.018,-0.014,0.002,104.0,104.0,104.0,13.4,1505.2,328.5,-0.8,1.8,2470.554,13.28,0.022,232.1
2021-06-24T09:25:03,42.805,6.029,-0.001,-0.015,-0.016,104.0,102.0,102.0,13.4,1505.2,327.9,-0.7,1.8,2470.516,13.28,0.015,183.8
2021-06-24T09:28:03,42.805,6.029,-0.015,-0.024,-0.042,104.0,104.0,101.0,13.3,1505.2,329.3,-0.7,1.8,2470.52,13.28,0.028,212.0
2021-06-24T09:31:03,42.805,6.029,-0.016,-0.01,-0.008,105.0,103.0,101.0,13.3,1505.2,328.5,-0.8,1.8,2470.533,13.28,0.018,238.0
2021-06-24T09:34:03,42.805,6.029,-0.021,-0.011,0.023,103.0,103.0,101.0,13.3,1505.2,326.3,-0.8,1.8,2470.552,13.28,0.023,242.4
2021-06-24T09:37:03,42.805,6.029,-0.017,-0.032,-0.026,104.0,103.0,102.0,13.4,1505.2,325.6,-0.8,1.8,2470.506,13.28,0.036,208.0
2021-06-24T09:40:03,42.805,6.029,-0.029,0.003,-0.003,102.0,103.0,103.0,13.4,1505.2,329.3,-0.7,1.8,2470.513,13.28,0.029,275.9
2021-06-24T09:43:03,42.805,6.029,-0.042,-0.024,-0.025,103.0,103.0,102.0,13.3,1505.2,326.7,-0.8,1.8,2470.549,13.28,0.048,240.3
2021-06-24T09:46:03,42.805,6.029,-0.02,-0.019,0.006,104.0,103.0,104.0,13.4,1505.2,330.1,-0.8,1.8,2470.556,13.28,0.027,226.5
2021-06-24T09:49:03,42.805,6.029,-0.025,-0.011,-0.005,104.0,104.0,102.0,13.4,1505.2,326.9,-0.8,1.8,2470.513,13.29,0.027,246.3
2021-06-24T09:52:03,42.805,6.029,-0.024,-0.01,-0.021,105.0,103.0,102.0,13.4,1505.2,327.4,-0.8,1.8,2470.492,13.29,0.026,247.4
2021-06-24T09:55:03,42.805,6.029,-0.008,-0.023,-0.028,104.0,104.0,102.0,13.4,1505.2,328.1,-0.8,1.8,2470.552,13.29,0.024,199.2